"Period start","avg(HW err(1)/warn(2) (#))","avg(Visibility (m))","avg(Weather code (#))","avg(Precip intensity (mm/h))","min(HW err(1)/warn(2) (#))","max(HW err(1)/warn(2) (#))","std(HW err(1)/warn(2) (#))","med(HW err(1)/warn(2) (#))","min(Visibility (m))","max(Visibility (m))","std(Visibility (m))","med(Visibility (m))","min(Weather code (#))","max(Weather code (#))","std(Weather code (#))","med(Weather code (#))","min(Precip intensity (mm/h))","max(Precip intensity (mm/h))","std(Precip intensity (mm/h))","med(Precip intensity (mm/h))"
2016-04-02 00:00:00,2,39883,0,0.00,2,2,0,2,32558,49686,6798,37546,0,0,0,0,0.00,0.00,0.00,0.00
2016-04-02 00:10:00,2,28620,0,0.00,2,2,0,2,17458,35588,5461,30804,0,0,0,0,0.00,0.00,0.00,0.00
2016-04-02 00:20:00,2,28154,0,0.00,2,2,0,2,16202,43761,8625,25502,0,0,0,0,0.00,0.00,0.00,0.00
2016-04-02 00:30:00,2,41293,0,0.00,2,2,0,2,25085,50000,8231,41052,0,0,0,0,0.00,0.00,0.00,0.00
2016-04-02 00:40:00,2,38782,0,0.00,2,2,0,2,22812,50000,10409,40302,0,0,0,0,0.00,0.00,0.00,0.00
2016-04-02 00:50:00,2,32800,0,0.00,2,2,0,2,21681,48428,8887,29296,0,0,0,0,0.00,0.00,0.00,0.00
2016-04-02 01:00:00,2,34715,0,0.00,2,2,0,2,26324,50000,7029,34126,0,0,0,0,0.00,0.00,0.00,0.00
2016-04-02 01:10:00,2,33788,0,0.00,2,2,0,2,14215,49382,10633,33280,0,0,0,0,0.00,0.00,0.00,0.00
2016-04-02 01:20:00,2,37586,0,0.00,2,2,0,2,19582,50000,8985,37468,0,0,0,0,0.00,0.00,0.00,0.00
2016-04-02 01:30:00,2,34561,0,0.00,2,2,0,2,17514,47132,8291,36198,0,0,0,0,0.00,0.00,0.00,0.00
2016-04-02 01:40:00,2,39842,0,0.00,2,2,0,2,24285,50000,8041,41818,0,0,0,0,0.00,0.00,0.00,0.00
2016-04-02 01:50:00,2,40148,0,0.00,2,2,0,2,29340,50000,6712,40445,0,0,0,0,0.00,0.00,0.00,0.00
2016-04-02 02:00:00,2,36124,0,0.00,2,2,0,2,20578,50000,10237,33260,0,0,0,0,0.00,0.00,0.00,0.00
2016-04-02 02:10:00,2,41449,0,0.00,2,2,0,2,31310,48431,5614,42304,0,0,0,0,0.00,0.00,0.00,0.00
2016-04-02 02:20:00,2,32888,0,0.00,2,2,0,2,19131,50000,9831,30254,0,0,0,0,0.00,0.00,0.00,0.00
2016-04-02 02:30:00,2,41145,0,0.00,2,2,0,2,31207,50000,6481,41880,0,0,0,0,0.00,0.00,0.00,0.00
2016-04-02 02:40:00,2,36759,0,0.00,2,2,0,2,22628,50000,10208,37838,0,0,0,0,0.00,0.00,0.00,0.00
2016-04-02 02:50:00,2,39994,0,0.00,2,2,0,2,31727,50000,5294,40098,0,0,0,0,0.00,0.00,0.00,0.00
2016-04-02 03:00:00,2,41126,0,0.00,2,2,0,2,26538,50000,9316,44647,0,0,0,0,0.00,0.00,0.00,0.00
2016-04-02 03:10:00,2,42796,0,0.00,2,2,0,2,33715,50000,6495,43105,0,0,0,0,0.00,0.00,0.00,0.00
2016-04-02 03:20:00,2,38472,0,0.00,2,2,0,2,28587,50000,8259,37246,0,0,0,0,0.00,0.00,0.00,0.00
2016-04-02 03:30:00,2,40006,0,0.00,2,2,0,2,27440,50000,6256,41060,0,0,0,0,0.00,0.00,0.00,0.00
2016-04-02 03:40:00,2,43400,0,0.00,2,2,0,2,30427,50000,5887,44226,0,0,0,0,0.00,0.00,0.00,0.00
2016-04-02 03:50:00,2,35094,0,0.00,2,2,0,2,22266,45940,6823,37164,0,0,0,0,0.00,0.00,0.00,0.00
2016-04-02 04:00:00,2,37658,0,0.00,2,2,0,2,26099,50000,8219,37566,0,0,0,0,0.00,0.00,0.00,0.00
2016-04-02 04:10:00,2,35633,0,0.00,2,2,0,2,25261,46194,6868,33229,0,0,0,0,0.00,0.00,0.00,0.00
2016-04-02 04:20:00,2,44754,0,0.00,2,2,0,2,35185,50000,5084,45798,0,0,0,0,0.00,0.00,0.00,0.00
2016-04-02 04:30:00,2,37426,0,0.00,2,2,0,2,27102,48514,6266,36918,0,0,0,0,0.00,0.00,0.00,0.00
2016-04-02 04:40:00,2,39109,0,0.00,2,2,0,2,28373,49686,6388,37110,0,0,0,0,0.00,0.00,0.00,0.00
2016-04-02 04:50:00,2,35821,0,0.00,2,2,0,2,26620,48378,6234,33694,0,0,0,0,0.00,0.00,0.00,0.00
2016-04-02 05:00:00,2,40292,0,0.00,2,2,0,2,31531,50000,6254,41250,0,0,0,0,0.00,0.00,0.00,0.00
2016-04-02 05:10:00,2,40229,0,0.00,2,2,0,2,24466,50000,9368,42619,0,0,0,0,0.00,0.00,0.00,0.00
2016-04-02 05:20:00,2,46183,0,0.00,2,2,0,2,39198,50000,4130,48176,0,0,0,0,0.00,0.00,0.00,0.00
2016-04-02 05:30:00,2,40173,0,0.00,2,2,0,2,29515,50000,6592,41816,0,0,0,0,0.00,0.00,0.00,0.00
2016-04-02 05:40:00,2,41667,0,0.00,2,2,0,2,30358,50000,7540,42246,0,0,0,0,0.00,0.00,0.00,0.00
2016-04-02 05:50:00,2,39321,0,0.00,2,2,0,2,27836,50000,7755,41684,0,0,0,0,0.00,0.00,0.00,0.00
2016-04-02 06:00:00,2,46557,0,0.00,2,2,0,2,37551,50000,4105,48316,0,0,0,0,0.00,0.00,0.00,0.00
2016-04-02 06:10:00,2,40040,0,0.00,2,2,0,2,32220,47108,4477,39870,0,0,0,0,0.00,0.00,0.00,0.00
2016-04-02 06:20:00,2,40102,0,0.00,2,2,0,2,28264,50000,7140,40735,0,0,0,0,0.00,0.00,0.00,0.00
2016-04-02 06:30:00,2,47253,0,0.00,2,2,0,2,37929,50000,3884,49600,0,0,0,0,0.00,0.00,0.00,0.00
2016-04-02 06:40:00,2,42412,0,0.00,2,2,0,2,31221,50000,6466,42556,0,0,0,0,0.00,0.00,0.00,0.00
2016-04-02 06:50:00,2,40472,0,0.00,2,2,0,2,27373,49194,6483,40984,0,0,0,0,0.00,0.00,0.00,0.00
2016-04-02 07:00:00,2,40820,0,0.00,2,2,0,2,33502,50000,5196,39268,0,0,0,0,0.00,0.00,0.00,0.00
2016-04-02 07:10:00,2,46920,0,0.00,2,2,0,2,43755,50000,2579,46464,0,0,0,0,0.00,0.00,0.00,0.00
2016-04-02 07:20:00,2,35721,0,0.00,2,2,0,2,28005,50000,7400,33638,0,0,0,0,0.00,0.00,0.00,0.00
2016-04-02 07:30:00,2,42562,0,0.00,2,2,0,2,29673,50000,6539,42248,0,0,0,0,0.00,0.00,0.00,0.00
2016-04-02 07:40:00,2,37851,0,0.00,2,2,0,2,30869,50000,5852,37092,0,0,0,0,0.00,0.00,0.00,0.00
2016-04-02 07:50:00,2,44748,0,0.00,2,2,0,2,35157,50000,5366,46054,0,0,0,0,0.00,0.00,0.00,0.00
2016-04-02 08:00:00,2,45348,0,0.00,2,2,0,2,37461,50000,3949,45786,0,0,0,0,0.00,0.00,0.00,0.00
2016-04-02 08:10:00,2,45818,0,0.00,2,2,0,2,38289,50000,3541,45640,0,0,0,0,0.00,0.00,0.00,0.00
2016-04-02 08:20:00,2,45037,0,0.00,2,2,0,2,37238,50000,4466,46762,0,0,0,0,0.00,0.00,0.00,0.00
2016-04-02 08:30:00,2,44241,0,0.00,2,2,0,2,31290,50000,6069,46176,0,0,0,0,0.00,0.00,0.00,0.00
2016-04-02 08:40:00,2,44864,0,0.00,2,2,0,2,35690,50000,4365,44717,0,0,0,0,0.00,0.00,0.00,0.00
2016-04-02 08:50:00,2,44813,0,0.00,2,2,0,2,37671,50000,4293,44200,0,0,0,0,0.00,0.00,0.00,0.00
2016-04-02 09:00:00,2,48386,0,0.00,2,2,0,2,41112,50000,2733,50000,0,0,0,0,0.00,0.00,0.00,0.00
2016-04-02 09:10:00,2,44366,0,0.00,2,2,0,2,36631,50000,5041,45960,0,0,0,0,0.00,0.00,0.00,0.00
2016-04-02 09:20:00,2,47252,0,0.00,2,2,0,2,40874,50000,3568,49037,0,0,0,0,0.00,0.00,0.00,0.00
2016-04-02 09:30:00,2,47820,0,0.00,2,2,0,2,41657,50000,3391,50000,0,0,0,0,0.00,0.00,0.00,0.00
2016-04-02 09:40:00,2,47902,0,0.00,2,2,0,2,44023,50000,2427,49432,0,0,0,0,0.00,0.00,0.00,0.00
2016-04-02 09:50:00,2,46134,0,0.00,2,2,0,2,40097,50000,3195,46024,0,0,0,0,0.00,0.00,0.00,0.00
2016-04-02 10:00:00,2,48702,0,0.00,2,2,0,2,43065,50000,2604,50000,0,0,0,0,0.00,0.00,0.00,0.00
2016-04-02 10:10:00,2,49066,0,0.00,2,2,0,2,45608,50000,1389,49896,0,0,0,0,0.00,0.00,0.00,0.00
2016-04-02 10:20:00,2,50000,0,0.00,2,2,0,2,50000,50000,0,50000,0,0,0,0,0.00,0.00,0.00,0.00
2016-04-02 10:30:00,2,50000,0,0.00,2,2,0,2,50000,50000,0,50000,0,0,0,0,0.00,0.00,0.00,0.00
2016-04-02 10:40:00,2,49872,0,0.00,2,2,0,2,48722,50000,383,50000,0,0,0,0,0.00,0.00,0.00,0.00
2016-04-02 10:50:00,2,49980,0,0.00,2,2,0,2,49801,50000,60,50000,0,0,0,0,0.00,0.00,0.00,0.00
2016-04-02 11:00:00,2,50000,0,0.00,2,2,0,2,50000,50000,0,50000,0,0,0,0,0.00,0.00,0.00,0.00
2016-04-02 11:10:00,2,50000,0,0.00,2,2,0,2,50000,50000,0,50000,0,0,0,0,0.00,0.00,0.00,0.00
2016-04-02 11:20:00,2,50000,0,0.00,2,2,0,2,50000,50000,0,50000,0,0,0,0,0.00,0.00,0.00,0.00
2016-04-02 11:30:00,2,49935,0,0.00,2,2,0,2,49352,50000,194,50000,0,0,0,0,0.00,0.00,0.00,0.00
2016-04-02 11:40:00,2,50000,0,0.00,2,2,0,2,50000,50000,0,50000,0,0,0,0,0.00,0.00,0.00,0.00
2016-04-02 11:50:00,2,50000,0,0.00,2,2,0,2,50000,50000,0,50000,0,0,0,0,0.00,0.00,0.00,0.00
2016-04-02 12:00:00,2,50000,0,0.00,2,2,0,2,50000,50000,0,50000,0,0,0,0,0.00,0.00,0.00,0.00
2016-04-02 12:10:00,2,50000,0,0.00,2,2,0,2,50000,50000,0,50000,0,0,0,0,0.00,0.00,0.00,0.00
2016-04-02 12:20:00,2,50000,0,0.00,2,2,0,2,50000,50000,0,50000,0,0,0,0,0.00,0.00,0.00,0.00
2016-04-02 12:30:00,2,49849,0,0.00,2,2,0,2,49019,50000,318,50000,0,0,0,0,0.00,0.00,0.00,0.00
2016-04-02 12:40:00,2,50000,0,0.00,2,2,0,2,50000,50000,0,50000,0,0,0,0,0.00,0.00,0.00,0.00
2016-04-02 12:50:00,2,49078,0,0.00,2,2,0,2,45280,50000,1546,50000,0,0,0,0,0.00,0.00,0.00,0.00
2016-04-02 13:00:00,2,50000,0,0.00,2,2,0,2,50000,50000,0,50000,0,0,0,0,0.00,0.00,0.00,0.00
2016-04-02 13:10:00,2,49006,0,0.00,2,2,0,2,45183,50000,1569,49888,0,0,0,0,0.00,0.00,0.00,0.00
2016-04-02 13:20:00,2,49947,0,0.00,2,2,0,2,49470,50000,159,50000,0,0,0,0,0.00,0.00,0.00,0.00
2016-04-02 13:30:00,2,50000,0,0.00,2,2,0,2,50000,50000,0,50000,0,0,0,0,0.00,0.00,0.00,0.00
2016-04-02 13:40:00,2,50000,0,0.00,2,2,0,2,50000,50000,0,50000,0,0,0,0,0.00,0.00,0.00,0.00
2016-04-02 13:50:00,2,49978,0,0.00,2,2,0,2,49782,50000,65,50000,0,0,0,0,0.00,0.00,0.00,0.00
2016-04-02 14:00:00,2,49874,0,0.00,2,2,0,2,48741,50000,378,50000,0,0,0,0,0.00,0.00,0.00,0.00
2016-04-02 14:10:00,2,49927,0,0.00,2,2,0,2,49267,50000,220,50000,0,0,0,0,0.00,0.00,0.00,0.00
2016-04-02 14:20:00,2,49571,0,0.00,2,2,0,2,45929,50000,1215,50000,0,0,0,0,0.00,0.00,0.00,0.00
2016-04-02 14:30:00,2,50000,0,0.00,2,2,0,2,50000,50000,0,50000,0,0,0,0,0.00,0.00,0.00,0.00
2016-04-02 14:40:00,2,50000,0,0.00,2,2,0,2,50000,50000,0,50000,0,0,0,0,0.00,0.00,0.00,0.00
2016-04-02 14:50:00,2,50000,0,0.00,2,2,0,2,50000,50000,0,50000,0,0,0,0,0.00,0.00,0.00,0.00
2016-04-02 15:00:00,2,49990,0,0.00,2,2,0,2,49904,50000,29,50000,0,0,0,0,0.00,0.00,0.00,0.00
2016-04-02 15:10:00,2,49944,0,0.00,2,2,0,2,49435,50000,170,50000,0,0,0,0,0.00,0.00,0.00,0.00
2016-04-02 15:20:00,2,49948,0,0.00,2,2,0,2,49484,50000,155,50000,0,0,0,0,0.00,0.00,0.00,0.00
2016-04-02 15:30:00,2,50000,0,0.00,2,2,0,2,50000,50000,0,50000,0,0,0,0,0.00,0.00,0.00,0.00
2016-04-02 15:40:00,2,49915,0,0.00,2,2,0,2,49449,50000,179,50000,0,0,0,0,0.00,0.00,0.00,0.00
2016-04-02 15:50:00,2,49995,0,0.00,2,2,0,2,49950,50000,15,50000,0,0,0,0,0.00,0.00,0.00,0.00
2016-04-02 16:00:00,2,50000,0,0.00,2,2,0,2,50000,50000,0,50000,0,0,0,0,0.00,0.00,0.00,0.00
2016-04-02 16:10:00,2,50000,0,0.00,2,2,0,2,50000,50000,0,50000,0,0,0,0,0.00,0.00,0.00,0.00
2016-04-02 16:20:00,2,49997,0,0.00,2,2,0,2,49967,50000,10,50000,0,0,0,0,0.00,0.00,0.00,0.00
2016-04-02 16:30:00,2,50000,0,0.00,2,2,0,2,50000,50000,0,50000,0,0,0,0,0.00,0.00,0.00,0.00
2016-04-02 16:40:00,2,50000,0,0.00,2,2,0,2,50000,50000,0,50000,0,0,0,0,0.00,0.00,0.00,0.00
2016-04-02 16:50:00,2,50000,0,0.00,2,2,0,2,50000,50000,0,50000,0,0,0,0,0.00,0.00,0.00,0.00
2016-04-02 17:00:00,2,50000,0,0.00,2,2,0,2,50000,50000,0,50000,0,0,0,0,0.00,0.00,0.00,0.00
2016-04-02 17:10:00,2,50000,0,0.00,2,2,0,2,50000,50000,0,50000,0,0,0,0,0.00,0.00,0.00,0.00
2016-04-02 17:20:00,2,50000,0,0.00,2,2,0,2,50000,50000,0,50000,0,0,0,0,0.00,0.00,0.00,0.00
2016-04-02 17:30:00,2,50000,0,0.00,2,2,0,2,50000,50000,0,50000,0,0,0,0,0.00,0.00,0.00,0.00
2016-04-02 17:40:00,2,50000,0,0.00,2,2,0,2,50000,50000,0,50000,0,0,0,0,0.00,0.00,0.00,0.00
2016-04-02 17:50:00,2,50000,0,0.00,2,2,0,2,50000,50000,0,50000,0,0,0,0,0.00,0.00,0.00,0.00
2016-04-02 18:00:00,2,49940,0,0.00,2,2,0,2,49404,50000,179,50000,0,0,0,0,0.00,0.00,0.00,0.00
2016-04-02 18:10:00,2,50000,0,0.00,2,2,0,2,50000,50000,0,50000,0,0,0,0,0.00,0.00,0.00,0.00
2016-04-02 18:20:00,2,50000,0,0.00,2,2,0,2,50000,50000,0,50000,0,0,0,0,0.00,0.00,0.00,0.00
2016-04-02 18:30:00,2,50000,0,0.00,2,2,0,2,50000,50000,0,50000,0,0,0,0,0.00,0.00,0.00,0.00
2016-04-02 18:40:00,2,50000,0,0.00,2,2,0,2,50000,50000,0,50000,0,0,0,0,0.00,0.00,0.00,0.00
2016-04-02 18:50:00,2,50000,0,0.00,2,2,0,2,50000,50000,0,50000,0,0,0,0,0.00,0.00,0.00,0.00
2016-04-02 19:00:00,2,50000,0,0.00,2,2,0,2,50000,50000,0,50000,0,0,0,0,0.00,0.00,0.00,0.00
2016-04-02 19:10:00,2,50000,0,0.00,2,2,0,2,50000,50000,0,50000,0,0,0,0,0.00,0.00,0.00,0.00
2016-04-02 19:20:00,2,50000,0,0.00,2,2,0,2,50000,50000,0,50000,0,0,0,0,0.00,0.00,0.00,0.00
2016-04-02 19:30:00,2,50000,0,0.00,2,2,0,2,50000,50000,0,50000,0,0,0,0,0.00,0.00,0.00,0.00
2016-04-02 19:40:00,2,50000,0,0.00,2,2,0,2,50000,50000,0,50000,0,0,0,0,0.00,0.00,0.00,0.00
2016-04-02 19:50:00,2,50000,0,0.00,2,2,0,2,50000,50000,0,50000,0,0,0,0,0.00,0.00,0.00,0.00
2016-04-02 20:00:00,2,50000,0,0.00,2,2,0,2,50000,50000,0,50000,0,0,0,0,0.00,0.00,0.00,0.00
2016-04-02 20:10:00,2,50000,0,0.00,2,2,0,2,50000,50000,0,50000,0,0,0,0,0.00,0.00,0.00,0.00
2016-04-02 20:20:00,2,50000,0,0.00,2,2,0,2,50000,50000,0,50000,0,0,0,0,0.00,0.00,0.00,0.00
2016-04-02 20:30:00,2,49871,0,0.00,2,2,0,2,48971,50000,310,50000,0,0,0,0,0.00,0.00,0.00,0.00
2016-04-02 20:40:00,2,49462,0,0.00,2,2,0,2,47820,50000,752,50000,0,0,0,0,0.00,0.00,0.00,0.00
2016-04-02 20:50:00,2,49063,0,0.00,2,2,0,2,43449,50000,1919,50000,0,0,0,0,0.00,0.00,0.00,0.00
2016-04-02 21:00:00,2,49942,0,0.00,2,2,0,2,49642,50000,120,50000,0,0,0,0,0.00,0.00,0.00,0.00
2016-04-02 21:10:00,2,50000,0,0.00,2,2,0,2,50000,50000,0,50000,0,0,0,0,0.00,0.00,0.00,0.00
2016-04-02 21:20:00,2,49339,0,0.00,2,2,0,2,45840,50000,1289,50000,0,0,0,0,0.00,0.00,0.00,0.00
2016-04-02 21:30:00,2,49701,0,0.00,2,2,0,2,47497,50000,749,50000,0,0,0,0,0.00,0.00,0.00,0.00
2016-04-02 21:40:00,2,47501,0,0.00,2,2,0,2,42349,50000,2981,49110,0,0,0,0,0.00,0.00,0.00,0.00
2016-04-02 21:50:00,2,49648,0,0.00,2,2,0,2,47218,50000,839,50000,0,0,0,0,0.00,0.00,0.00,0.00
2016-04-02 22:00:00,2,48170,0,0.00,2,2,0,2,44929,50000,1795,48278,0,0,0,0,0.00,0.00,0.00,0.00
2016-04-02 22:10:00,2,48195,0,0.00,2,2,0,2,41544,50000,2893,50000,0,0,0,0,0.00,0.00,0.00,0.00
2016-04-02 22:20:00,2,49186,0,0.00,2,2,0,2,45596,50000,1439,50000,0,0,0,0,0.00,0.00,0.00,0.00
2016-04-02 22:30:00,2,47179,0,0.00,2,2,0,2,40521,50000,3169,48028,0,0,0,0,0.00,0.00,0.00,0.00
2016-04-02 22:40:00,2,48507,0,0.00,2,2,0,2,40947,50000,2763,50000,0,0,0,0,0.00,0.00,0.00,0.00
2016-04-02 22:50:00,2,48635,0,0.00,2,2,0,2,41519,50000,2561,50000,0,0,0,0,0.00,0.00,0.00,0.00
2016-04-02 23:00:00,2,48428,0,0.00,2,2,0,2,42952,50000,2334,49552,0,0,0,0,0.00,0.00,0.00,0.00
2016-04-02 23:10:00,2,42405,0,0.00,2,2,0,2,33958,50000,4807,44038,0,0,0,0,0.00,0.00,0.00,0.00
2016-04-02 23:20:00,2,43502,0,0.00,2,2,0,2,37879,50000,4860,42804,0,0,0,0,0.00,0.00,0.00,0.00
2016-04-02 23:30:00,2,43590,0,0.00,2,2,0,2,34185,50000,5645,43070,0,0,0,0,0.00,0.00,0.00,0.00
2016-04-02 23:40:00,2,36375,0,0.00,2,2,0,2,26965,50000,6736,35484,0,0,0,0,0.00,0.00,0.00,0.00
2016-04-02 23:50:00,2,34910,0,0.00,2,2,0,2,25881,43636,5198,35092,0,0,0,0,0.00,0.00,0.00,0.00
